Location: Rockford
(42.2710°N, 89.0940°W)
Time: 14:25:26
(UTC-05:00)

SPOT 5 - Visible Passes

Search period start: 16 April 2014 00:00
Search period end: 26 April 2014 00:00
Orbit: 824 x 826 km, 98.6° (Epoch: 16 April)

Date Brightness Start Highest point End Pass type
(mag) Time Alt. Az. Time Alt. Az. Time Alt. Az.
16 Apr 3.3 21:48:21 48° ESE 21:49:24 57° ENE 21:54:39 10° N visible
16 Apr 5.1 23:29:48 19° W 23:29:57 19° W 23:33:42 10° NW visible
17 Apr 3.8 21:28:41 32° ESE 21:30:10 39° ENE 21:35:07 10° N visible
17 Apr 4.6 23:10:08 28° W 23:10:25 28° W 23:15:01 10° NW visible
18 Apr 4.3 21:09:01 22° E 21:10:59 27° ENE 21:15:25 10° N visible
18 Apr 4.0 22:50:28 41° WSW 22:50:58 42° W 22:56:03 10° NNW visible
19 Apr 4.7 20:49:20 14° E 20:51:52 19° ENE 20:55:32 10° NNE visible
19 Apr 3.4 22:30:48 56° SW 22:31:33 62° WSW 22:36:53 10° NNW visible
20 Apr 5.1 20:30:23 10° E 20:32:48 13° ENE 20:35:13 10° NNE visible
20 Apr 3.0 22:11:07 59° SSE 22:12:12 89° ENE 22:17:36 10° NNW visible
20 Apr 5.6 23:52:35 11° W 23:53:05 11° W 23:54:43 10° WNW visible
21 Apr 3.2 21:51:27 45° SE 21:52:54 61° ENE 21:58:12 10° N visible
21 Apr 5.2 23:32:55 17° W 23:33:30 18° W 23:37:02 10° NW visible
22 Apr 3.7 21:31:47 31° ESE 21:33:39 42° ENE 21:38:40 10° N visible
22 Apr 4.7 23:13:15 25° WSW 23:13:58 26° W 23:18:25 10° NW visible
23 Apr 4.2 21:12:07 21° ESE 21:14:28 29° ENE 21:19:01 10° N visible
23 Apr 4.1 22:53:35 36° WSW 22:54:29 38° W 22:59:30 10° NNW visible
24 Apr 4.6 20:52:27 14° E 20:55:20 20° ENE 20:59:10 10° NNE visible
24 Apr 3.5 22:33:55 47° SW 22:35:04 57° W 22:40:22 10° NNW visible
25 Apr 5.0 20:33:31 10° E 20:36:15 14° ENE 20:38:59 10° NNE visible
25 Apr 3.1 22:14:15 50° S 22:15:42 85° WSW 22:21:06 10° NNW visible
25 Apr 5.7 23:56:02 10° W 23:56:39 10° W 23:57:16 10° W visible
